全球星 M089星 (GLOBALSTAR M089)

导读 | 豆包AI

GLOBALSTAR M089是全球星(Globalstar)卫星通信系统的一员,于2011年7月13日发射。全球星系统是提供全球卫星通信服务的低轨星座,旨在为偏远地区、移动用户以及地面网络覆盖不足区域提供语音和数据通信服务。作为补充卫星,GLOBALSTAR M089承担着增强星座覆盖、提升系统通信容量的作用,助力全球无缝移动通信能力建设,服务于海事、探险、应急通信等多个领域需求。

Basic Information
目录编号:
37744
目录名称:
GLOBALSTAR M089
国际标识:
2011-033F
轨道中心:
EARTH
卫星名称:
全球星 M089星
卫星全名:
全球星 M089星 (GLOBALSTAR M089)
卫星状态:
在轨 (已飞行5358 天)
发射日期:
2011-07-13 UTC
国别 :
(GLOB)
星等 :
--
Orbit Information
数据来源 国际轨道数据 AOE轨道数据
星历时间 2026-03-13T19:09:40+0800
15小时前
查看轨道信息
2026-03-13T01:00:00+0800
1天前
查看轨道信息
半长轴 7791.748km 7791.749km
偏心率 0.0000085 0.000001
轨道倾角 51.992° 51.992°
近地点辐角 164.606° 30.472°
升交点赤经 81.264° 83.570°
平近点角 0.075° 293.909°
近地点 1413.544km 1413.604km
远地点 1413.678km 1413.62km
周期 114.081分钟 114.081分钟
每日圈数 12.622648 12.622646
Detailed Information
固有亮度:
5
最大亮度:
7.2
平衡模式:
三轴稳定
覆盖范围:
全球
运营商:
全球星公司
运营商所在国:
美国
使用方式:
暂无
Satellite Introduction
全球星星座由48颗卫星加8颗备份星组成。这些卫星分布在8个倾角为52度的圆形轨道平面上,每个轨道平面6颗卫星,另有1 颗备用星。轨道高度约为1414km,传输时延和处理时延小于300ms,整个系统的覆盖区为南北纬70度以内的地区。该卫星已退役。
2D Orbit Map
3D Orbit Map
Orbit Altitude Analysis Chart
Orbit Inclination Analysis Chart
Orbit Comprehensive Analysis Chart
View Comprehensive Chart